AKDT,Max TemperatureF,Mean TemperatureF,Min TemperatureF,Max Dew PointF,MeanDew PointF,Min DewpointF,Max Humidity, Mean Humidity, Min Humidity, Max Sea Level PressureIn, Mean Sea Level PressureIn, Min Sea Level PressureIn, Max VisibilityMiles, Mean VisibilityMiles, Min VisibilityMiles, Max Wind SpeedMPH, Mean Wind SpeedMPH, Max Gust SpeedMPH,PrecipitationIn, CloudCover, Events, WindDirDegrees
2013-9-1,57,52,48,52,50,46,100,89,77,29.85,29.83,29.82,10,9,2,15,3,21,0.00,6,Rain,175
2013-9-2,57,54,51,54,50,46,94,85,74,29.85,29.76,29.67,10,9,2,22,12,36,0.47,8,Rain,187
2013-9-3,57,53,51,52,51,47,100,93,75,29.60,29.44,29.38,10,6,1,21,8,28,0.66,8,Rain,172
2013-9-4,55,52,46,52,49,44,100,92,80,29.86,29.54,29.43,10,7,2,16,8,25,1.14,7,Rain,176
2013-9-5,57,49,43,48,45,42,97,84,67,30.05,30.00,29.88,10,10,6,12,4,20,0.02,7,Rain,186
2013-9-6,55,52,48,54,50,44,100,92,71,30.00,29.54,29.42,10,6,1,24,8,31,1.46,8,Rain,198
2013-9-7,55,52,50,52,50,48,100,90,75,29.67,29.54,29.43,10,7,2,17,4,24,0.56,8,Rain,162
2013-9-8,59,55,51,50,48,47,89,78,69,29.91,29.67,29.42,10,10,9,17,8,23,0.02,6,Rain,219
2013-9-9,55,52,50,52,51,47,100,93,80,29.89,29.72,29.66,10,5,1,15,5,23,1.78,8,Rain,187
2013-9-10,55,52,50,54,52,48,100,96,89,29.77,29.72,29.67,10,5,1,12,4,,1.20,8,Rain,139
2013-9-11,60,52,48,51,49,46,100,88,72,29.95,29.71,29.56,10,9,5,17,5,25,0.83,8,Rain,138
2013-9-12,54,52,50,48,45,42,94,76,66,30.05,30.00,29.96,10,10,6,16,7,21,0.00,8,Rain,198
2013-9-13,55,52,48,51,48,45,97,89,69,29.96,29.91,29.87,10,9,3,13,2,21,0.46,8,Rain,346
2013-9-14,57,55,53,49,47,45,83,74,67,29.88,29.85,29.83,10,10,10,16,11,21,0.01,7,Rain,6
2013-9-15,64,57,50,48,43,39,89,63,45,29.86,29.76,29.68,10,10,6,23,14,36,0.00,1,,3
2013-9-16,59,54,48,42,39,35,71,58,41,29.66,29.54,29.47,10,10,9,17,13,28,0.00,3,,13
2013-9-17,55,52,48,46,44,41,83,74,64,29.51,29.46,29.43,10,10,10,14,8,18,0.00,8,Rain,17
2013-9-18,53,49,45,47,45,42,93,87,77,29.62,29.59,29.52,10,10,9,9,5,16,0.03,7,Rain,345
2013-9-19,55,50,44,46,38,25,100,70,42,29.59,29.47,29.33,10,10,8,20,6,39,0.03,5,Rain,347
2013-9-20,54,46,36,27,21,15,70,38,23,29.31,29.20,29.02,10,10,10,22,15,38,0.00,0,,344
2013-9-21,52,42,34,38,34,28,82,70,56,29.01,28.93,28.88,10,10,10,23,10,31,0.02,7,Rain,343
2013-9-22,44,40,37,38,34,26,87,75,53,29.22,29.00,28.88,10,9,5,26,19,40,0.32,8,Rain-Snow,351
2013-9-23,43,39,35,34,30,22,93,69,45,29.70,29.47,29.23,10,10,6,23,19,37,0.03,7,Rain-Snow,357
2013-9-24,53,42,35,46,35,26,93,74,55,29.98,29.91,29.72,10,10,4,22,9,32,0.01,6,Rain,18
2013-9-25,52,47,42,50,45,39,100,89,74,29.88,29.61,29.50,10,7,2,24,12,34,1.24,8,Rain,179
2013-9-26,55,49,45,47,46,44,100,88,74,29.60,29.49,29.27,10,10,7,17,4,23,0.23,8,Rain,138
2013-9-27,52,48,44,46,43,38,96,82,59,29.24,29.06,28.91,10,8,4,23,13,32,0.68,7,Rain,343
2013-9-28,57,52,46,41,36,32,77,56,42,29.11,29.06,29.01,10,10,10,22,13,32,0.00,2,,357
2013-9-29,52,48,45,32,30,29,56,48,43,29.29,29.19,29.08,10,10,10,24,14,36,0.00,1,,348
2013-9-30,55,50,45,31,29,28,54,47,37,29.57,29.44,29.31,10,10,10,20,15,32,0.00,1,,354